map of MTT home
MTT - Airport
Location
City:  Minatitlán, Veracruz, México
Name:Minatitlán/Coatzacoalcos National
ICAO:MMMT
IATA:MTT

Details
Type:Airport (Aerodrome, Airfield)
Latitude:18°06'12"N (18.103419)
Longitude:94°34'50"W (-94.580680)
Datum:WGS 1984
Elevation:36 ft (11 m)
Variation:2.57°E (WMM2015 magnetic declination)
-0.13° annual change
Runways:1
Longest:6890 × 148 ft (2100 × 45 m), paved

Time
Time Zone:UTC-6 (DST-5)
Local Time:

Weather
METAR:MMMT 210043Z 36010KT 7SM OVC030 21/15 A3019 RMK 8/5//

Related Locations
Nearby:
Farthest:CCK: 11581 mi / 18638 km
West Island (Pulau Panjang) [Cocos (Keeling) Islands], CC

Find:

   beyond  
but within

Other Information
Maps:
NOTAMs:
Links:
Sources:

  
  • flag of México
  • flag of Veracruz
  

Sectional Chart

Flight Planning
at skyvector.com

Satellite Image

Google Maps Satellite view

 

Copyright © 2004-2019 Karl L. Swartz. All rights reserved.
The Great Circle Mapper name and logo are trademarks of the Great Circle Mapper.
All other trademarks mentioned herein belong to their respective owners.
Please see credits for attibutions and further copyright information.

  Follow gcmap on Facebook Follow gcmap on Twitter Follow gcmap on Google+ GCmap on LinkedIn

hCard Microformat

Geo Microformat